Weather History for KHUL - February, 2013

Change the Weather History Date:

Friday, February 8, 2013

  Actual Average Record
Temperature  
Mean Temperature -2 °F 13 °F  
Max Temperature 11 °F 24 °F 48 °F (1951)
Min Temperature -16 °F 2 °F -29 °F (1994)
Degree Days  
Heating Degree Days 67 52  
Month to date heating degree days 451 421  
Since 1 July heating degree days 5248 5596  
Cooling Degree Days 0 0  
Month to date cooling degree days 0 0  
Year to date cooling degree days 0 0  
Moisture  
Dew Point -11 °F    
Average Humidity 60    
Maximum Humidity 78    
Minimum Humidity 41    
Precipitation  
Precipitation 0.00 in 0.07 in 0.82 in (1951)
Month to date precipitation T 0.59  
Year to date precipitation 1.46 3.45  
Sea Level Pressure  
Sea Level Pressure 30.49 in    
Wind  
Wind Speed 4 mph (NE)    
Max Wind Speed 17 mph    
Max Gust Speed 28 mph    
Visibility 10 miles    
Events      
T = Trace of Precipitation, MM = Missing Value Source: NWS Daily Summary

Daily Weather History Graph

Daily Weather History Graph

Search for Another Location

Airport or City:

Trip Planner

Search our weather history database for the weather conditions in past years. The results will help you decide how hot, cold, wet, or windy it might be!

Date:

Astronomy

Feb. 08, 2013 Rise Set
Actual Time 6:44 AM EST 4:47 PM EST
Civil Twilight 6:12 AM EST 5:18 PM EST
Nautical Twilight 5:37 AM EST 5:53 PM EST
Astronomical Twilight 5:02 AM EST 6:28 PM EST
Moon 5:13 AM EST (2/8) 3:14 PM EST (2/8)
Length of Visible Light 11h 05m
Length of Day
10h 02m
Waning Crescent, 3% of the Moon is Illuminated
Feb 8
Waning Crescent
Feb 10
New
Feb 17
First Quarter
Feb 25
Full
Mar 4
Last Quarter

Hourly Weather History & Observations

Time (EST) Temp. Windchill Dew Point Humidity Pressure Visibility Wind Dir Wind Speed Gust Speed Precip Events Conditions
12:53 AM -15.0 °F - -22.0 °F 71% 30.58 in 10.0 mi Calm Calm - N/A   Clear
1:53 AM -15.0 °F - -22.0 °F 71% 30.60 in 10.0 mi Calm Calm - N/A   Clear
2:53 AM -14.1 °F - -20.0 °F 75% 30.61 in 10.0 mi Calm Calm - N/A   Clear
3:53 AM -11.0 °F -20.4 °F -17.0 °F 75% 30.61 in 10.0 mi South 3.5 mph - N/A   Overcast
4:53 AM -8.0 °F - -15.0 °F 71% 30.60 in 10.0 mi Calm Calm - N/A   Overcast
5:53 AM -8.0 °F -16.9 °F -16.1 °F 68% 30.58 in 10.0 mi North 3.5 mph - N/A   Overcast
6:53 AM -7.1 °F -15.9 °F -15.0 °F 68% 30.57 in 10.0 mi North 3.5 mph - N/A   Overcast
7:53 AM -5.1 °F - -13.0 °F 69% 30.59 in 10.0 mi Calm Calm - N/A   Overcast
8:53 AM -2.0 °F - -11.9 °F 63% 30.61 in 10.0 mi Calm Calm - N/A   Overcast
9:53 AM 1.0 °F - -11.0 °F 57% 30.61 in 10.0 mi Calm Calm - N/A   Overcast
10:53 AM 3.9 °F - -8.0 °F 58% 30.59 in 9.0 mi Calm Calm - N/A   Overcast
11:53 AM 7.0 °F -1.7 °F -8.0 °F 51% 30.55 in 10.0 mi Variable 4.6 mph - N/A   Overcast
12:53 PM 8.1 °F - -7.1 °F 50% 30.53 in 10.0 mi Calm Calm - N/A   Mostly Cloudy
1:53 PM 10.0 °F 0.4 °F -8.0 °F 44% 30.49 in 10.0 mi ENE 5.8 mph - N/A   Clear
2:53 PM 10.0 °F 1.8 °F -9.0 °F 42% 30.49 in 10.0 mi ENE 4.6 mph - N/A   Clear
3:53 PM 10.9 °F -0.8 °F -6.0 °F 47% 30.45 in 10.0 mi NE 8.1 mph - N/A   Clear
4:53 PM 9.0 °F 0.6 °F -5.1 °F 53% 30.43 in 10.0 mi NE 4.6 mph - N/A   Clear
5:53 PM 9.0 °F -0.9 °F -7.1 °F 48% 30.41 in 10.0 mi NE 5.8 mph - N/A   Clear
6:53 PM 10.0 °F -1.9 °F -4.0 °F 53% 30.40 in 10.0 mi ENE 8.1 mph - N/A   Scattered Clouds
7:53 PM 10.0 °F -1.9 °F -4.0 °F 53% 30.37 in 10.0 mi ENE 8.1 mph - N/A   Overcast
8:53 PM 10.0 °F -0.9 °F -4.0 °F 53% 30.36 in 10.0 mi NE 6.9 mph - N/A   Overcast
9:53 PM 10.0 °F -2.9 °F -8.0 °F 44% 30.32 in 10.0 mi ENE 9.2 mph 21.9 mph N/A   Overcast
10:53 PM 10.0 °F -3.7 °F -9.0 °F 42% 30.26 in 10.0 mi NNE 10.4 mph 23.0 mph N/A   Overcast
11:53 PM 10.0 °F -5.9 °F -11.0 °F 38% 30.22 in 10.0 mi NE 13.8 mph 21.9 mph N/A   Overcast